| time (UTC) | temp C | wind direction | speed KPH | gust KPH | rain 1hr cm | rain 24hr cm | rain mn cm | humidity % | barometer mb |
| 20260507041100 | 15 | 223 | 4.8 | 11.3 | 0.00 | 0.00 | 0.00 | 76 | 1018.1 |
| 20260507040600 | 15 | 249 | 3.2 | 11.3 | 0.00 | 0.00 | 0.00 | 75 | 1018.0 |
| 20260507040103 | 15 | 217 | 3.2 | 11.3 | 0.00 | 0.00 | 0.00 | 75 | 1018.0 |
| 20260507035601 | 15 | 246 | 4.8 | 11.3 | 0.00 | 0.00 | 0.00 | 75 | 1017.9 |
| 20260507035058 | 15 | 275 | 6.4 | 11.3 | 0.00 | 0.00 | 0.00 | 75 | 1017.8 |
| 20260507034604 | 15 | 243 | 4.8 | 9.7 | 0.00 | 0.00 | 0.00 | 75 | 1017.7 |
| 20260507034058 | 15 | 262 | 3.2 | 12.9 | 0.00 | 0.00 | 0.00 | 74 | 1017.6 |
| 20260507033559 | 16 | 231 | 4.8 | 12.9 | 0.00 | 0.00 | 0.00 | 74 | 1017.7 |
| 20260507033102 | 16 | 266 | 4.8 | 12.9 | 0.00 | 0.00 | 0.00 | 74 | 1017.6 |
| 20260507032559 | 16 | 243 | 4.8 | 12.9 | 0.00 | 0.00 | 0.00 | 74 | 1017.5 |
| 20260507032057 | 16 | 250 | 3.2 | 11.3 | 0.00 | 0.00 | 0.00 | 73 | 1017.5 |
| 20260507031559 | 16 | 258 | 3.2 | 12.9 | 0.00 | 0.00 | 0.00 | 73 | 1017.5 |
| 20260507031059 | 16 | 238 | 6.4 | 12.9 | 0.00 | 0.00 | 0.00 | 73 | 1017.5 |
| 20260507030558 | 16 | 241 | 4.8 | 12.9 | 0.00 | 0.00 | 0.00 | 73 | 1017.5 |
| 20260507030058 | 16 | 237 | 1.6 | 14.5 | 0.00 | 0.00 | 0.00 | 72 | 1017.5 |
| 20260507025558 | 17 | 243 | 6.4 | 14.5 | 0.00 | 0.00 | 0.00 | 72 | 1017.4 |
| 20260507025057 | 17 | 235 | 4.8 | 14.5 | 0.00 | 0.00 | 0.00 | 71 | 1017.4 |
| 20260507024559 | 17 | 242 | 4.8 | 12.9 | 0.00 | 0.00 | 0.00 | 71 | 1017.4 |
| 20260507024107 | 17 | 256 | 4.8 | 12.9 | 0.00 | 0.00 | 0.00 | 71 | 1017.3 |
| 20260507023600 | 17 | 249 | 3.2 | 12.9 | 0.00 | 0.00 | 0.00 | 70 | 1017.2 |
| 20260507023058 | 18 | 255 | 6.4 | 11.3 | 0.00 | 0.00 | 0.00 | 70 | 1017.2 |
| 20260507022558 | 18 | 228 | 6.4 | 11.3 | 0.00 | 0.00 | 0.00 | 69 | 1017.1 |
| 20260507022058 | 18 | 210 | 3.2 | 12.9 | 0.00 | 0.00 | 0.00 | 69 | 1017.1 |
| 20260507021618 | 18 | 243 | 4.8 | 12.9 | 0.00 | 0.00 | 0.00 | 68 | 1017.0 |
| 20260507021058 | 18 | 261 | 4.8 | 12.9 | 0.00 | 0.00 | 0.00 | 68 | 1017.0 |
| 20260507020557 | 18 | 270 | 4.8 | 19.3 | 0.00 | 0.00 | 0.00 | 67 | 1017.0 |
| 20260507020107 | 19 | 153 | 6.4 | 19.3 | 0.00 | 0.00 | 0.00 | 67 | 1017.0 |
| 20260507015557 | 19 | 266 | 8.0 | 14.5 | 0.00 | 0.00 | 0.00 | 67 | 1016.9 |
| 20260507015100 | 19 | 242 | 6.4 | 14.5 | 0.00 | 0.00 | 0.00 | 66 | 1016.9 |
| 20260507014602 | 20 | 239 | 4.8 | 14.5 | 0.00 | 0.00 | 0.00 | 66 | 1016.9 |
| 20260507014057 | 20 | 209 | 4.8 | 20.9 | 0.00 | 0.00 | 0.00 | 66 | 1016.8 |
| 20260507013558 | 20 | 235 | 8.0 | 20.9 | 0.00 | 0.00 | 0.00 | 66 | 1016.8 |
| 20260507013111 | 20 | 244 | 9.7 | 17.7 | 0.00 | 0.00 | 0.00 | 65 | 1016.8 |
| 20260507012603 | 20 | 193 | 6.4 | 19.3 | 0.00 | 0.00 | 0.00 | 65 | 1016.7 |
| 20260507012057 | 20 | 247 | 9.7 | 19.3 | 0.00 | 0.00 | 0.00 | 65 | 1016.7 |
| 20260507011559 | 20 | 270 | 9.7 | 19.3 | 0.00 | 0.00 | 0.00 | 63 | 1016.7 |
| 20260507011057 | 20 | 228 | 4.8 | 20.9 | 0.00 | 0.00 | 0.00 | 64 | 1016.6 |
| 20260507010557 | 20 | 269 | 8.0 | 20.9 | 0.00 | 0.00 | 0.00 | 64 | 1016.6 |
| 20260507010059 | 21 | 259 | 4.8 | 19.3 | 0.00 | 0.00 | 0.00 | 64 | 1016.6 |
| 20260507005558 | 20 | 259 | 9.7 | 19.3 | 0.00 | 0.00 | 0.00 | 63 | 1016.6 |
| 20260507005057 | 21 | 219 | 9.7 | 19.3 | 0.00 | 0.00 | 0.00 | 62 | 1016.5 |
| 20260507004558 | 21 | 273 | 9.7 | 20.9 | 0.00 | 0.00 | 0.00 | 63 | 1016.5 |
| 20260507004058 | 21 | 256 | 11.3 | 20.9 | 0.00 | 0.00 | 0.00 | 63 | 1016.4 |
| 20260507003558 | 21 | 255 | 9.7 | 19.3 | 0.00 | 0.00 | 0.00 | 62 | 1016.4 |
| 20260507003058 | 21 | 256 | 9.7 | 22.5 | 0.00 | 0.00 | 0.00 | 62 | 1016.5 |
| 20260507002558 | 21 | 248 | 4.8 | 22.5 | 0.00 | 0.00 | 0.00 | 61 | 1016.4 |
| 20260507002057 | 21 | 249 | 8.0 | 22.5 | 0.00 | 0.00 | 0.00 | 61 | 1016.3 |
| 20260507001605 | 21 | 252 | 11.3 | 22.5 | 0.00 | 0.00 | 0.00 | 61 | 1016.3 |
| 20260507001056 | 21 | 271 | 8.0 | 17.7 | 0.00 | 0.00 | 0.00 | 60 | 1016.3 |
| 20260507000557 | 21 | 228 | 9.7 | 22.5 | 0.00 | 0.00 | 0.00 | 61 | 1016.2 |
| 20260507000058 | 22 | 272 | 6.4 | 22.5 | 0.00 | 0.00 | 0.00 | 60 | 1016.2 |
| 20260506235558 | 22 | 269 | 8.0 | 19.3 | 0.00 | 0.00 | 0.00 | 59 | 1016.2 |
| 20260506235057 | 22 | 253 | 9.7 | 20.9 | 0.00 | 0.00 | 0.00 | 58 | 1016.2 |
| 20260506234627 | 22 | 285 | 9.7 | 20.9 | 0.00 | 0.00 | 0.00 | 59 | 1016.2 |
| 20260506234057 | 22 | 243 | 6.4 | 20.9 | 0.00 | 0.00 | 0.00 | 59 | 1016.1 |
| 20260506233558 | 22 | 257 | 12.9 | 19.3 | 0.00 | 0.00 | 0.00 | 58 | 1016.1 |
| 20260506233057 | 22 | 249 | 8.0 | 19.3 | 0.00 | 0.00 | 0.00 | 56 | 1016.2 |
| 20260506232559 | 22 | 265 | 8.0 | 22.5 | 0.00 | 0.00 | 0.00 | 57 | 1016.2 |
| 20260506232056 | 22 | 255 | 9.7 | 22.5 | 0.00 | 0.00 | 0.00 | 57 | 1016.2 |
| 20260506231558 | 22 | 255 | 9.7 | 19.3 | 0.00 | 0.00 | 0.00 | 57 | 1016.2 |
| 20260506231059 | 22 | 226 | 6.4 | 19.3 | 0.00 | 0.00 | 0.00 | 56 | 1016.2 |
| 20260506230602 | 22 | 278 | 8.0 | 20.9 | 0.00 | 0.00 | 0.00 | 56 | 1016.2 |
| 20260506230059 | 22 | 251 | 11.3 | 20.9 | 0.00 | 0.00 | 0.00 | 56 | 1016.2 |
| 20260506225602 | 22 | 246 | 4.8 | 19.3 | 0.00 | 0.00 | 0.00 | 56 | 1016.3 |
| 20260506225059 | 22 | 271 | 4.8 | 19.3 | 0.00 | 0.00 | 0.00 | 57 | 1016.3 |
| 20260506224600 | 22 | 254 | 4.8 | 19.3 | 0.00 | 0.00 | 0.00 | 56 | 1016.3 |
| 20260506224101 | 22 | 217 | 9.7 | 19.3 | 0.00 | 0.00 | 0.00 | 56 | 1016.4 |
| 20260506223600 | 22 | 253 | 6.4 | 19.3 | 0.00 | 0.00 | 0.00 | 56 | 1016.5 |
| 20260506223101 | 22 | 236 | 9.7 | 20.9 | 0.00 | 0.00 | 0.00 | 56 | 1016.6 |
| 20260506222635 | 22 | 226 | 6.4 | 22.5 | 0.00 | 0.00 | 0.00 | 56 | 1016.6 |
| 20260506222057 | 22 | 237 | 6.4 | 22.5 | 0.00 | 0.00 | 0.00 | 55 | 1016.6 |
| 20260506221558 | 22 | 248 | 4.8 | 17.7 | 0.00 | 0.00 | 0.00 | 55 | 1016.7 |
| 20260506221056 | 22 | 228 | 6.4 | 17.7 | 0.00 | 0.00 | 0.00 | 53 | 1016.8 |
| 20260506220556 | 22 | 265 | 8.0 | 22.5 | 0.00 | 0.00 | 0.00 | 55 | 1016.8 |
| 20260506220055 | 21 | 241 | 8.0 | 22.5 | 0.00 | 0.00 | 0.00 | 53 | 1017.0 |
| 20260506215557 | 22 | 259 | 11.3 | 22.5 | 0.00 | 0.00 | 0.00 | 53 | 1017.0 |
| 20260506215101 | 22 | 250 | 4.8 | 17.7 | 0.00 | 0.00 | 0.00 | 53 | 1017.0 |
| 20260506214557 | 21 | 259 | 4.8 | 17.7 | 0.00 | 0.00 | 0.00 | 54 | 1017.2 |
| 20260506214057 | 21 | 307 | 4.8 | 17.7 | 0.00 | 0.00 | 0.00 | 53 | 1017.4 |
| 20260506213557 | 21 | 153 | 6.4 | 17.7 | 0.00 | 0.00 | 0.00 | 53 | 1017.4 |
| 20260506213058 | 22 | 155 | 3.2 | 17.7 | 0.00 | 0.00 | 0.00 | 53 | 1017.4 |
| 20260506212557 | 22 | 259 | 3.2 | 19.3 | 0.00 | 0.00 | 0.00 | 53 | 1017.5 |
| 20260506212059 | 21 | 281 | 4.8 | 19.3 | 0.00 | 0.00 | 0.00 | 53 | 1017.5 |
| 20260506211559 | 21 | 214 | 4.8 | 14.5 | 0.00 | 0.00 | 0.00 | 54 | 1017.6 |
| 20260506211057 | 21 | 257 | 4.8 | 14.5 | 0.00 | 0.00 | 0.00 | 54 | 1017.6 |
| 20260506210559 | 21 | 169 | 4.8 | 17.7 | 0.00 | 0.00 | 0.00 | 54 | 1017.7 |
| 20260506210057 | 21 | 62 | 3.2 | 17.7 | 0.00 | 0.00 | 0.00 | 54 | 1017.7 |
| 20260506205559 | 21 | 137 | 4.8 | 14.5 | 0.00 | 0.00 | 0.00 | 54 | 1017.8 |
| 20260506205056 | 21 | 188 | 1.6 | 16.1 | 0.00 | 0.00 | 0.00 | 55 | 1017.8 |
| 20260506204602 | 21 | 233 | 3.2 | 16.1 | 0.00 | 0.00 | 0.00 | 56 | 1017.9 |
| 20260506204056 | 20 | 278 | 6.4 | 16.1 | 0.00 | 0.00 | 0.00 | 57 | 1017.9 |
| 20260506203556 | 20 | 272 | 1.6 | 16.1 | 0.00 | 0.00 | 0.00 | 58 | 1018.0 |
| 20260506203058 | 20 | 276 | 6.4 | 16.1 | 0.00 | 0.00 | 0.00 | 57 | 1018.1 |
| 20260506202600 | 21 | 257 | 4.8 | 16.1 | 0.00 | 0.00 | 0.00 | 56 | 1018.1 |
| 20260506202059 | 20 | 231 | 1.6 | 16.1 | 0.00 | 0.00 | 0.00 | 57 | 1018.1 |
| 20260506201558 | 20 | 237 | 3.2 | 14.5 | 0.00 | 0.00 | 0.00 | 57 | 1018.1 |
| 20260506201057 | 20 | 127 | 6.4 | 14.5 | 0.00 | 0.00 | 0.00 | 59 | 1018.1 |
| 20260506200601 | 20 | 249 | 3.2 | 14.5 | 0.00 | 0.00 | 0.00 | 57 | 1018.2 |
| 20260506200112 | 20 | 202 | 3.2 | 12.9 | 0.00 | 0.00 | 0.00 | 57 | 1018.2 |
| 20260506195600 | 20 | 150 | 4.8 | 9.7 | 0.00 | 0.00 | 0.00 | 58 | 1018.2 |
| 20260506195057 | 20 | 0 | 3.2 | 11.3 | 0.00 | 0.00 | 0.00 | 56 | 1018.3 |
| 20260506194619 | 20 | 182 | 4.8 | 14.5 | 0.00 | 0.00 | 0.00 | 60 | 1018.3 |
| 20260506194056 | 20 | 261 | 6.4 | 14.5 | 0.00 | 0.00 | 0.00 | 58 | 1018.3 |
| 20260506193600 | 20 | 255 | 0.0 | 12.9 | 0.00 | 0.00 | 0.00 | 57 | 1018.4 |
| 20260506193058 | 19 | 193 | 6.4 | 12.9 | 0.00 | 0.00 | 0.00 | 57 | 1018.5 |
| 20260506192557 | 20 | 179 | 1.6 | 9.7 | 0.00 | 0.00 | 0.00 | 57 | 1018.6 |
| 20260506192057 | 19 | 0 | 3.2 | 9.7 | 0.00 | 0.00 | 0.00 | 57 | 1018.6 |
| 20260506191556 | 19 | 212 | 3.2 | 11.3 | 0.00 | 0.00 | 0.00 | 59 | 1018.7 |
| 20260506191057 | 19 | 152 | 1.6 | 11.3 | 0.00 | 0.00 | 0.00 | 58 | 1018.8 |
| 20260506190559 | 19 | 267 | 4.8 | 11.3 | 0.00 | 0.00 | 0.00 | 59 | 1018.9 |
| 20260506190100 | 19 | 123 | 3.2 | 9.7 | 0.00 | 0.00 | 0.00 | 59 | 1018.9 |
| 20260506185557 | 19 | 107 | 1.6 | 8.0 | 0.00 | 0.00 | 0.00 | 57 | 1019.0 |
| 20260506185100 | 19 | 323 | 0.0 | 8.0 | 0.00 | 0.00 | 0.00 | 58 | 1019.0 |
| 20260506184610 | 18 | 288 | 3.2 | 8.0 | 0.00 | 0.00 | 0.00 | 59 | 1019.1 |
| 20260506184057 | 18 | 161 | 1.6 | 11.3 | 0.00 | 0.00 | 0.00 | 60 | 1019.0 |
| 20260506183601 | 18 | 100 | 4.8 | 11.3 | 0.00 | 0.00 | 0.00 | 59 | 1019.2 |
| 20260506183105 | 18 | 241 | 1.6 | 6.4 | 0.00 | 0.00 | 0.00 | 60 | 1019.1 |
| 20260506182556 | 18 | 0 | 1.6 | 8.0 | 0.00 | 0.00 | 0.00 | 60 | 1019.2 |
| 20260506182056 | 18 | 251 | 0.0 | 12.9 | 0.00 | 0.00 | 0.00 | 61 | 1019.3 |
| 20260506181600 | 17 | 132 | 3.2 | 12.9 | 0.00 | 0.00 | 0.00 | 61 | 1019.2 |
| 20260506181100 | 17 | 182 | 1.6 | 12.9 | 0.00 | 0.00 | 0.00 | 62 | 1019.2 |
| 20260506180557 | 17 | 274 | 3.2 | 9.7 | 0.00 | 0.00 | 0.00 | 62 | 1019.2 |
| 20260506180057 | 17 | 91 | 1.6 | 6.4 | 0.00 | 0.00 | 0.00 | 63 | 1019.3 |
| 20260506175556 | 17 | 249 | 0.0 | 6.4 | 0.00 | 0.00 | 0.00 | 64 | 1019.3 |
| 20260506175056 | 16 | 0 | 1.6 | 8.0 | 0.00 | 0.00 | 0.00 | 64 | 1019.3 |
| 20260506174602 | 16 | 116 | 3.2 | 8.0 | 0.00 | 0.00 | 0.00 | 64 | 1019.2 |
| 20260506174058 | 16 | 166 | 3.2 | 8.0 | 0.00 | 0.00 | 0.00 | 65 | 1019.2 |
| 20260506173558 | 16 | 124 | 0.0 | 6.4 | 0.00 | 0.00 | 0.00 | 65 | 1019.3 |
| 20260506173112 | 16 | 120 | 0.0 | 6.4 | 0.00 | 0.00 | 0.00 | 65 | 1019.3 |
| 20260506172600 | 16 | 44 | 3.2 | 9.7 | 0.00 | 0.00 | 0.00 | 66 | 1019.2 |
| 20260506172056 | 16 | 76 | 1.6 | 9.7 | 0.00 | 0.00 | 0.00 | 66 | 1019.3 |
| 20260506171600 | 16 | 117 | 0.0 | 4.8 | 0.00 | 0.00 | 0.00 | 67 | 1019.3 |
| 20260506171057 | 16 | 201 | 1.6 | 6.4 | 0.00 | 0.00 | 0.00 | 67 | 1019.2 |
| 20260506170600 | 16 | 0 | 1.6 | 6.4 | 0.00 | 0.00 | 0.00 | 68 | 1019.2 |
| 20260506170057 | 16 | 190 | 1.6 | 6.4 | 0.00 | 0.00 | 0.00 | 68 | 1019.2 |
| 20260506165557 | 16 | 0 | 1.6 | 6.4 | 0.00 | 0.00 | 0.00 | 68 | 1019.2 |
| 20260506165057 | 16 | 270 | 1.6 | 6.4 | 0.00 | 0.00 | 0.00 | 68 | 1019.2 |
| 20260506164558 | 15 | 237 | 0.0 | 9.7 | 0.00 | 0.00 | 0.00 | 69 | 1019.2 |
| 20260506164056 | 15 | 182 | 1.6 | 9.7 | 0.00 | 0.00 | 0.00 | 70 | 1019.2 |
| 20260506163556 | 15 | 213 | 1.6 | 6.4 | 0.00 | 0.00 | 0.00 | 70 | 1019.2 |
| 20260506163055 | 15 | 202 | 1.6 | 6.4 | 0.00 | 0.00 | 0.00 | 72 | 1019.2 |
| 20260506162559 | 15 | 203 | 1.6 | 8.0 | 0.00 | 0.00 | 0.00 | 71 | 1019.2 |
| 20260506162101 | 14 | 0 | 1.6 | 8.0 | 0.00 | 0.00 | 0.00 | 73 | 1019.2 |
| 20260506161605 | 15 | 250 | 0.0 | 6.4 | 0.00 | 0.00 | 0.00 | 71 | 1019.2 |
| 20260506161057 | 15 | 181 | 1.6 | 6.4 | 0.00 | 0.00 | 0.00 | 71 | 1019.1 |
| 20260506160557 | 14 | 106 | 1.6 | 6.4 | 0.00 | 0.00 | 0.00 | 72 | 1019.2 |
| 20260506160058 | 14 | 207 | 1.6 | 6.4 | 0.00 | 0.00 | 0.00 | 73 | 1019.2 |
| 20260506155558 | 14 | 64 | 1.6 | 4.8 | 0.00 | 0.00 | 0.00 | 73 | 1019.1 |
| 20260506155058 | 14 | 115 | 0.0 | 3.2 | 0.00 | 0.00 | 0.00 | 72 | 1019.1 |
| 20260506154557 | 14 | 0 | 0.0 | 3.2 | 0.00 | 0.00 | 0.00 | 72 | 1019.0 |
| 20260506154057 | 14 | 180 | 0.0 | 1.6 | 0.00 | 0.00 | 0.00 | 74 | 1019.0 |
| 20260506153556 | 13 | 0 | 0.0 | 3.2 | 0.00 | 0.00 | 0.00 | 74 | 1019.1 |
| 20260506153058 | 13 | 143 | 0.0 | 3.2 | 0.00 | 0.00 | 0.00 | 73 | 1019.1 |
| 20260506152557 | 13 | 61 | 0.0 | 3.2 | 0.00 | 0.00 | 0.00 | 74 | 1019.2 |
| 20260506152101 | 13 | 0 | 0.0 | 3.2 | 0.00 | 0.00 | 0.00 | 75 | 1019.2 |
| 20260506151608 | 13 | 195 | 0.0 | 3.2 | 0.00 | 0.00 | 0.00 | 76 | 1019.2 |
| 20260506151057 | 13 | 261 | 0.0 | 1.6 | 0.00 | 0.00 | 0.00 | 76 | 1019.3 |
| 20260506150557 | 13 | 0 | 0.0 | 3.2 | 0.00 | 0.00 | 0.00 | 75 | 1019.3 |
| 20260506150106 | 13 | 0 | 0.0 | 3.2 | 0.00 | 0.00 | 0.00 | 76 | 1019.2 |
| 20260506145558 | 13 | 143 | 0.0 | 3.2 | 0.00 | 0.00 | 0.00 | 75 | 1019.2 |
| 20260506145058 | 13 | 0 | 0.0 | 3.2 | 0.00 | 0.00 | 0.00 | 75 | 1019.2 |
| 20260506144613 | 14 | 69 | 0.0 | 3.2 | 0.00 | 0.00 | 0.00 | 75 | 1019.2 |
| 20260506144056 | 13 | 0 | 0.0 | 0.0 | 0.00 | 0.00 | 0.00 | 78 | 1019.2 |
| 20260506143557 | 13 | 0 | 0.0 | 1.6 | 0.00 | 0.00 | 0.00 | 79 | 1019.1 |
| 20260506143103 | 13 | 0 | 0.0 | 1.6 | 0.00 | 0.00 | 0.00 | 82 | 1019.0 |
| 20260506142558 | 12 | 0 | 0.0 | 1.6 | 0.00 | 0.00 | 0.00 | 83 | 1018.9 |
| 20260506142056 | 12 | 0 | 0.0 | 1.6 | 0.00 | 0.00 | 0.00 | 85 | 1018.8 |
| 20260506141559 | 12 | 0 | 0.0 | 0.0 | 0.00 | 0.00 | 0.00 | 87 | 1018.9 |
| 20260506141057 | 11 | 0 | 0.0 | 0.0 | 0.00 | 0.00 | 0.00 | 90 | 1018.9 |
| 20260506140558 | 11 | 0 | 0.0 | 0.0 | 0.00 | 0.00 | 0.00 | 91 | 1018.9 |
| 20260506140111 | 10 | 0 | 0.0 | 0.0 | 0.00 | 0.00 | 0.00 | 91 | 1018.9 |
| 20260506135557 | 10 | 0 | 0.0 | 0.0 | 0.00 | 0.00 | 0.00 | 93 | 1018.8 |
| 20260506135056 | 9 | 0 | 0.0 | 0.0 | 0.00 | 0.00 | 0.00 | 92 | 1018.8 |
| 20260506134559 | 9 | 0 | 0.0 | 0.0 | 0.00 | 0.00 | 0.00 | 94 | 1018.7 |
| 20260506134056 | 8 | 0 | 0.0 | 0.0 | 0.00 | 0.00 | 0.00 | 93 | 1018.7 |
| 20260506133557 | 8 | 0 | 0.0 | 0.0 | 0.00 | 0.00 | 0.00 | 93 | 1018.6 |
| 20260506133059 | 8 | 0 | 0.0 | 1.6 | 0.00 | 0.00 | 0.00 | 94 | 1018.5 |
| 20260506132557 | 7 | 0 | 0.0 | 1.6 | 0.00 | 0.00 | 0.00 | 94 | 1018.5 |
| 20260506132056 | 7 | 0 | 0.0 | 0.0 | 0.00 | 0.00 | 0.00 | 94 | 1018.4 |
| 20260506131601 | 7 | 0 | 0.0 | 0.0 | 0.00 | 0.00 | 0.00 | 94 | 1018.3 |
| 20260506131056 | 7 | 0 | 0.0 | 0.0 | 0.00 | 0.00 | 0.00 | 94 | 1018.3 |
| 20260506130557 | 7 | 0 | 0.0 | 0.0 | 0.00 | 0.00 | 0.00 | 94 | 1018.3 |
| 20260506130126 | 7 | 0 | 0.0 | 0.0 | 0.00 | 0.00 | 0.00 | 94 | 1018.2 |
| 20260506125602 | 7 | 0 | 0.0 | 0.0 | 0.00 | 0.00 | 0.00 | 94 | 1018.2 |
| 20260506125057 | 7 | 0 | 0.0 | 0.0 | 0.00 | 0.00 | 0.00 | 94 | 1018.2 |
| 20260506124556 | 7 | 0 | 0.0 | 0.0 | 0.00 | 0.00 | 0.00 | 94 | 1018.2 |
| 20260506124058 | 7 | 0 | 0.0 | 0.0 | 0.00 | 0.00 | 0.00 | 94 | 1018.2 |
| 20260506123559 | 7 | 0 | 0.0 | 0.0 | 0.00 | 0.00 | 0.00 | 94 | 1018.1 |
| 20260506123055 | 7 | 0 | 0.0 | 0.0 | 0.00 | 0.00 | 0.00 | 93 | 1018.1 |
| 20260506122558 | 7 | 0 | 0.0 | 0.0 | 0.00 | 0.00 | 0.00 | 93 | 1018.0 |
| 20260506122056 | 7 | 0 | 0.0 | 0.0 | 0.00 | 0.00 | 0.00 | 93 | 1018.0 |
| 20260506121555 | 7 | 0 | 0.0 | 0.0 | 0.00 | 0.00 | 0.00 | 93 | 1018.1 |
| 20260506121056 | 7 | 0 | 0.0 | 0.0 | 0.00 | 0.00 | 0.00 | 93 | 1018.0 |
| 20260506120556 | 7 | 0 | 0.0 | 0.0 | 0.00 | 0.00 | 0.00 | 93 | 1017.9 |
| 20260506120100 | 7 | 0 | 0.0 | 0.0 | 0.00 | 0.00 | 0.00 | 93 | 1017.9 |
| 20260506115557 | 7 | 0 | 0.0 | 0.0 | 0.00 | 0.00 | 0.00 | 93 | 1017.9 |
| 20260506115055 | 7 | 0 | 0.0 | 0.0 | 0.00 | 0.00 | 0.00 | 92 | 1017.9 |
| 20260506114557 | 7 | 0 | 0.0 | 0.0 | 0.00 | 0.00 | 0.00 | 93 | 1017.9 |
| 20260506114057 | 7 | 0 | 0.0 | 0.0 | 0.00 | 0.00 | 0.00 | 92 | 1017.9 |
| 20260506113558 | 7 | 0 | 0.0 | 0.0 | 0.00 | 0.00 | 0.00 | 92 | 1017.9 |
| 20260506113105 | 7 | 0 | 0.0 | 0.0 | 0.00 | 0.00 | 0.00 | 92 | 1017.9 |
| 20260506112555 | 7 | 0 | 0.0 | 0.0 | 0.00 | 0.00 | 0.00 | 92 | 1017.8 |
| 20260506112056 | 7 | 0 | 0.0 | 0.0 | 0.00 | 0.00 | 0.00 | 92 | 1017.8 |
| 20260506111600 | 7 | 0 | 0.0 | 0.0 | 0.00 | 0.00 | 0.00 | 92 | 1017.8 |
| 20260506111056 | 7 | 0 | 0.0 | 0.0 | 0.00 | 0.00 | 0.00 | 92 | 1017.8 |
| 20260506110557 | 7 | 0 | 0.0 | 0.0 | 0.00 | 0.00 | 0.00 | 92 | 1017.9 |
| 20260506110105 | 7 | 0 | 0.0 | 0.0 | 0.00 | 0.00 | 0.00 | 91 | 1017.8 |
| 20260506105558 | 7 | 0 | 0.0 | 0.0 | 0.00 | 0.08 | 0.00 | 90 | 1017.8 |
| 20260506105056 | 7 | 0 | 0.0 | 0.0 | 0.00 | 0.08 | 0.00 | 91 | 1017.7 |
| 20260506104617 | 7 | 0 | 0.0 | 0.0 | 0.00 | 0.08 | 0.00 | 91 | 1017.8 |
| 20260506104058 | 7 | 0 | 0.0 | 0.0 | 0.00 | 0.08 | 0.00 | 91 | 1017.8 |
| 20260506103557 | 7 | 0 | 0.0 | 0.0 | 0.00 | 0.08 | 0.00 | 91 | 1017.8 |
| 20260506103055 | 7 | 0 | 0.0 | 0.0 | 0.00 | 0.08 | 0.00 | 90 | 1017.8 |
| 20260506102558 | 7 | 0 | 0.0 | 0.0 | 0.00 | 0.08 | 0.00 | 90 | 1017.9 |
| 20260506102057 | 7 | 0 | 0.0 | 0.0 | 0.00 | 0.08 | 0.00 | 90 | 1017.9 |
| 20260506101606 | 7 | 0 | 0.0 | 0.0 | 0.00 | 0.08 | 0.00 | 90 | 1017.8 |
| 20260506101057 | 7 | 0 | 0.0 | 0.0 | 0.00 | 0.08 | 0.00 | 90 | 1017.8 |
| 20260506100559 | 7 | 0 | 0.0 | 0.0 | 0.00 | 0.08 | 0.00 | 89 | 1017.8 |
| 20260506100104 | 7 | 0 | 0.0 | 0.0 | 0.00 | 0.08 | 0.00 | 90 | 1017.9 |
| 20260506095559 | 7 | 0 | 0.0 | 0.0 | 0.00 | 0.28 | 0.00 | 89 | 1017.9 |
| 20260506095058 | 7 | 0 | 0.0 | 0.0 | 0.00 | 0.28 | 0.00 | 88 | 1017.9 |
| 20260506094600 | 7 | 0 | 0.0 | 0.0 | 0.00 | 0.28 | 0.00 | 88 | 1017.9 |
| 20260506094057 | 7 | 0 | 0.0 | 0.0 | 0.00 | 0.28 | 0.00 | 88 | 1017.9 |
| 20260506093557 | 8 | 0 | 0.0 | 0.0 | 0.00 | 0.28 | 0.00 | 88 | 1017.9 |
| 20260506093104 | 8 | 0 | 0.0 | 0.0 | 0.00 | 0.28 | 0.00 | 88 | 1017.9 |
| 20260506092558 | 8 | 0 | 0.0 | 0.0 | 0.00 | 0.28 | 0.00 | 88 | 1017.9 |
| 20260506092058 | 8 | 0 | 0.0 | 0.0 | 0.00 | 0.28 | 0.00 | 88 | 1017.9 |
| 20260506091559 | 8 | 0 | 0.0 | 0.0 | 0.00 | 0.28 | 0.00 | 88 | 1018.1 |
| 20260506091101 | 8 | 0 | 0.0 | 0.0 | 0.00 | 0.28 | 0.00 | 88 | 1018.1 |
| 20260506090604 | 8 | 0 | 0.0 | 1.6 | 0.00 | 0.28 | 0.00 | 87 | 1018.2 |
| 20260506085557 | 8 | 234 | 0.0 | 1.6 | 0.00 | 0.38 | 0.00 | 87 | 1018.3 |
| 20260506085059 | 8 | 0 | 0.0 | 1.6 | 0.00 | 0.38 | 0.00 | 86 | 1018.3 |
| 20260506084559 | 8 | 0 | 0.0 | 1.6 | 0.00 | 0.38 | 0.00 | 86 | 1018.3 |
| 20260506084058 | 9 | 0 | 0.0 | 1.6 | 0.00 | 0.38 | 0.00 | 85 | 1018.3 |
| 20260506083558 | 9 | 250 | 0.0 | 1.6 | 0.00 | 0.38 | 0.00 | 86 | 1018.3 |
| 20260506083100 | 9 | 0 | 0.0 | 0.0 | 0.00 | 0.38 | 0.00 | 86 | 1018.3 |
| 20260506082558 | 9 | 0 | 0.0 | 0.0 | 0.00 | 0.38 | 0.00 | 86 | 1018.4 |
| 20260506082100 | 9 | 0 | 0.0 | 0.0 | 0.00 | 0.38 | 0.00 | 86 | 1018.4 |
| 20260506081605 | 9 | 0 | 0.0 | 3.2 | 0.00 | 0.38 | 0.00 | 85 | 1018.5 |
| 20260506081058 | 9 | 0 | 0.0 | 3.2 | 0.00 | 0.38 | 0.00 | 85 | 1018.5 |
| 20260506080558 | 9 | 255 | 0.0 | 0.0 | 0.00 | 0.38 | 0.00 | 86 | 1018.5 |
| 20260506080107 | 9 | 0 | 0.0 | 0.0 | 0.00 | 0.38 | 0.00 | 86 | 1018.5 |
| 20260506073106 | 9 | 0 | 0.0 | 0.0 | 0.00 | 0.41 | 0.00 | 86 | 1018.3 |
| 20260506072556 | 9 | 0 | 0.0 | 0.0 | 0.00 | 0.41 | 0.00 | 86 | 1018.3 |
| 20260506072059 | 9 | 0 | 0.0 | 0.0 | 0.00 | 0.41 | 0.00 | 85 | 1018.3 |
| 20260506071614 | 10 | 0 | 0.0 | 0.0 | 0.00 | 0.41 | 0.00 | 85 | 1018.3 |
| 20260506071101 | 10 | 0 | 0.0 | 0.0 | 0.00 | 0.41 | 0.00 | 84 | 1018.3 |
| 20260506070558 | 10 | 0 | 0.0 | 0.0 | 0.00 | 0.41 | 0.00 | 83 | 1018.3 |
| 20260506070104 | 10 | 0 | 0.0 | 0.0 | 0.00 | 0.41 | 0.00 | 83 | 1018.2 |
| 20260506062057 | 11 | 0 | 0.0 | 1.6 | 0.00 | 0.48 | 0.41 | 80 | 1017.9 |
| 20260506061558 | 11 | 0 | 0.0 | 1.6 | 0.00 | 0.48 | 0.41 | 80 | 1017.9 |
| 20260506061055 | 11 | 0 | 0.0 | 3.2 | 0.00 | 0.48 | 0.41 | 79 | 1017.8 |
| 20260506060601 | 11 | 0 | 0.0 | 6.4 | 0.00 | 0.48 | 0.41 | 79 | 1017.9 |
| 20260506051101 | 12 | 265 | 0.0 | 3.2 | 0.00 | 0.48 | 0.41 | 76 | 1017.5 |
| 20260506050557 | 12 | 237 | 1.6 | 3.2 | 0.00 | 0.48 | 0.41 | 76 | 1017.5 |
| 20260506045057 | 12 | 0 | 0.0 | 1.6 | 0.00 | 0.48 | 0.41 | 77 | 1017.3 |
| 20260506044601 | 12 | 0 | 0.0 | 1.6 | 0.00 | 0.48 | 0.41 | 77 | 1017.3 |
| 20260506044057 | 12 | 245 | 0.0 | 1.6 | 0.00 | 0.48 | 0.41 | 76 | 1017.3 |
| 20260506043557 | 12 | 0 | 0.0 | 1.6 | 0.00 | 0.48 | 0.41 | 76 | 1017.1 |
| 20260506043057 | 12 | 0 | 0.0 | 1.6 | 0.00 | 0.48 | 0.41 | 75 | 1017.2 |
| 20260506042555 | 12 | 0 | 0.0 | 1.6 | 0.00 | 0.48 | 0.41 | 75 | 1017.1 |
| 20260506042058 | 12 | 263 | 0.0 | 1.6 | 0.00 | 0.48 | 0.41 | 75 | 1017.0 |
| 20260506041605 | 12 | 0 | 0.0 | 1.6 | 0.00 | 0.48 | 0.41 | 75 | 1016.8 |